This is the latest recevied weather packets stored in our database for station/object OE7SBH-WX. If no packets are shown the sender has not sent any weather packets the latest 10 day(s).
| Time | Temp. | Humidity | Pressure | Rain* | Wind** | Luminosity | Snow |
|---|---|---|---|---|---|---|---|
| 1778135429 | 10.56° C | 79% | 1018.3 hPa | 0 mm | - | 86 W/m² | - |
| 1778132444 | 10° C | 82% | 1018 hPa | 0 mm | - | 64 W/m² | - |
| 1778130631 | 9.44° C | 83% | 1017.8 hPa | 0 mm | - | 28 W/m² | - |
| 1778130052 | 9.44° C | 83% | 1017.8 hPa | 0 mm | - | 20 W/m² | - |
| 1778125221 | 8.33° C | 85% | 1016.9 hPa | 0 mm | - | 1 W/m² | - |
| 1778124628 | 8.33° C | 86% | 1016.8 hPa | 0 mm | - | 0 W/m² | - |
| 1778121623 | 8.89° C | 84% | 1016.7 hPa | 0 mm | - | 0 W/m² | - |
| 1778115029 | 9.44° C | 82% | 1016.3 hPa | 0 mm | - | 0 W/m² | - |
| 1778114424 | 9.44° C | 82% | 1016 hPa | 0 mm | - | 0 W/m² | - |
| 1778111429 | 11.11° C | 75% | 1015.9 hPa | 0 mm | - | 0 W/m² | - |
| 1778110235 | 11.11° C | 76% | 1016 hPa | 0 mm | - | 0 W/m² | - |
| 1778109632 | 11.11° C | 76% | 1015.9 hPa | 0 mm | - | 0 W/m² | - |
| 1778108440 | 11.11° C | 75% | 1015.9 hPa | 0 mm | - | 0 W/m² | - |
| 1778106632 | 12.22° C | 69% | 1015.6 hPa | 0 mm | - | 0 W/m² | - |
| 1778106046 | 11.67° C | 71% | 1015.7 hPa | 0 mm | - | 0 W/m² | - |
| 1778105429 | 11.67° C | 73% | 1015.5 hPa | 0 mm | - | 0 W/m² | - |
| 1778097623 | 14.44° C | 67% | 1013.8 hPa | 0 mm | - | 0 W/m² | - |
| 1778096427 | 15° C | 64% | 1013.2 hPa | 0 mm | - | 0 W/m² | - |
| 1778088024 | 17.78° C | 52% | 1010.9 hPa | 0 mm | - | 40 W/m² | - |
| 1778086216 | 18.89° C | 46% | 1010.3 hPa | 0 mm | - | 103 W/m² | - |
| 1778083221 | 18.33° C | 50% | 1010.5 hPa | 0 mm | - | 93 W/m² | - |
| 1778081433 | 19.44° C | 46% | 1010.3 hPa | 0 mm | - | 99 W/m² | - |
| 1778080828 | 20.56° C | 42% | 1009.9 hPa | 0 mm | - | 151 W/m² | - |
| 1778080228 | 20.56° C | 42% | 1009.7 hPa | 0 mm | - | 132 W/m² | - |
| 1778071233 | 21.67° C | 40% | 1009.5 hPa | 0 mm | - | 301 W/m² | - |
* Rain latest hour (hover to see other rain measurements)
** Current wind speed in m/s (hover to see current wind gust speed)